Location: Helsinki
(60.1699°N, 24.9384°E)
Time: 15:22:13
(UTC+02:00)

Tiros 1 - Pass Details

Date: 05 October 2022
Orbit: 629 x 662 km, 48.4° (Epoch: 07 December)

Event Time Altitude Azimuth Distance (km) Brightness Sun altitude
Rises 00:21:57 0° 204° (SSW) 2,987 - -33.7°
Reaches altitude 10° 00:25:51 10° 172° (S) 2,076 - -33.8°
Maximum altitude 00:27:30 12° 152° (SSE) 1,963 - -33.9°
Drops below altitude 10° 00:29:09 10° 132° (SE) 2,075 - -33.9°
Sets 00:33:02 0° 100° (E) 2,984 - -34.0°
